Clarion, IA

10:03 PM CST on January 23, 2017 (GMT -0600)
Clarion Municipal

Weather History for KCAV - June, 2013

Change the Weather History Date:

Wednesday, June 19, 2013

  Actual Average Record
Temperature  
Mean Temperature 74 °F -  
Max Temperature 86 °F 79 °F 97 °F (1953)
Min Temperature 62 °F 57 °F 42 °F (1976)
Cooling Degree Days 9    
Growing Degree Days 24 (Base 50)    
Moisture  
Dew Point 58 °F    
Average Humidity 58    
Maximum Humidity 82    
Minimum Humidity 37    
Precipitation  
Precipitation 0.00 in - - ()
Sea Level Pressure  
Sea Level Pressure 30.02 in    
Wind  
Wind Speed 12 mph (SSE)    
Max Wind Speed 17 mph    
Max Gust Speed 24 mph    
Visibility 10 miles    
Events      
Averages and records for this station are not official NWS values.
T = Trace of Precipitation, MM = Missing Value Source: NWS Daily Summary

Daily Weather History Graph

Daily Weather History Graph

Search for Another Location

Airport or City:

Trip Planner

Search our weather history database for the weather conditions in past years. The results will help you decide how hot, cold, wet, or windy it might be!

Date:

Astronomy

Jun. 19, 2013 Rise Set
Actual Time 5:36 AM CDT 8:56 PM CDT
Civil Twilight 5:01 AM CDT 9:31 PM CDT
Nautical Twilight 4:15 AM CDT 10:17 PM CDT
Astronomical Twilight 3:19 AM CDT 11:13 PM CDT
Moon 4:46 PM CDT (6/19) 2:26 AM CDT (6/19)
Length of Visible Light 16h 30m
Length of Day
15h 19m
Waxing Gibbous, 80% of the Moon is Illuminated
Jun 19
Waxing Gibbous
Jun 23
Full
Jun 29
Last Quarter
Jul 8
New
Jul 15
First Quarter

Hourly Weather History & Observations

Time (CDT) Temp. Heat Index Dew Point Humidity Pressure Visibility Wind Dir Wind Speed Gust Speed Precip Events Conditions
12:15 AM 68.0 °F - 55.4 °F 64% 30.04 in 10.0 mi ESE 8.1 mph - N/A   Clear
12:35 AM 68.0 °F - 55.4 °F 64% 30.04 in 10.0 mi ESE 8.1 mph - N/A   Clear
12:55 AM 66.2 °F - 55.4 °F 68% 30.04 in 10.0 mi ESE 8.1 mph - N/A   Clear
1:15 AM 66.2 °F - 55.4 °F 68% 30.04 in 10.0 mi ESE 8.1 mph - N/A   Clear
1:35 AM 66.2 °F - 55.4 °F 68% 30.04 in 10.0 mi ESE 9.2 mph - N/A   Clear
1:55 AM 66.2 °F - 55.4 °F 68% 30.04 in 10.0 mi ESE 8.1 mph - N/A   Clear
2:15 AM 66.2 °F - 55.4 °F 68% 30.04 in 10.0 mi ESE 10.4 mph - N/A   Clear
2:35 AM 66.2 °F - 55.4 °F 68% 30.04 in 10.0 mi ESE 10.4 mph - N/A   Clear
2:55 AM 64.4 °F - 55.4 °F 73% 30.04 in 10.0 mi ESE 11.5 mph - N/A   Clear
3:15 AM 64.4 °F - 57.2 °F 77% 30.03 in 10.0 mi ESE 11.5 mph - N/A   Clear
3:35 AM 64.4 °F - 57.2 °F 77% 30.03 in 10.0 mi SE 13.8 mph - N/A   Clear
3:55 AM 64.4 °F - 57.2 °F 77% 30.04 in 10.0 mi SE 12.7 mph - N/A   Clear
4:15 AM 64.4 °F - 57.2 °F 77% 30.03 in 10.0 mi SE 12.7 mph - N/A   Clear
4:35 AM 64.4 °F - 57.2 °F 77% 30.03 in 10.0 mi SE 11.5 mph - N/A   Clear
4:55 AM 62.6 °F - 57.2 °F 82% 30.03 in 10.0 mi SE 13.8 mph - N/A   Clear
5:15 AM 62.6 °F - 57.2 °F 82% 30.04 in 10.0 mi SE 12.7 mph - N/A   Clear
5:35 AM 62.6 °F - 57.2 °F 82% 30.04 in 10.0 mi SE 11.5 mph - N/A   Clear
5:55 AM 62.6 °F - 57.2 °F 82% 30.05 in 10.0 mi SE 11.5 mph - N/A   Clear
6:15 AM 62.6 °F - 57.2 °F 82% 30.06 in 10.0 mi SE 12.7 mph - N/A   Clear
6:35 AM 64.4 °F - 57.2 °F 77% 30.05 in 10.0 mi SE 13.8 mph - N/A   Clear
6:55 AM 64.4 °F - 57.2 °F 77% 30.07 in 10.0 mi SSE 13.8 mph - N/A   Clear
7:35 AM 68.0 °F - 59.0 °F 73% 30.07 in 10.0 mi SSE 16.1 mph - N/A   Partly Cloudy
7:55 AM 68.0 °F - 59.0 °F 73% 30.07 in 10.0 mi SSE 16.1 mph - N/A   Mostly Cloudy
8:15 AM 69.8 °F - 59.0 °F 68% 30.08 in 10.0 mi SSE 12.7 mph - N/A   Mostly Cloudy
8:35 AM 69.8 °F - 59.0 °F 68% 30.07 in 10.0 mi SSE 15.0 mph - N/A   Partly Cloudy
8:55 AM 71.6 °F - 59.0 °F 64% 30.07 in 10.0 mi SSE 15.0 mph - N/A   Clear
9:15 AM 73.4 °F - 60.8 °F 65% 30.07 in 10.0 mi SSE 15.0 mph - N/A   Clear
9:35 AM 73.4 °F - 60.8 °F 65% 30.07 in 10.0 mi SSE 15.0 mph - N/A   Clear
9:55 AM 75.2 °F - 60.8 °F 61% 30.06 in 10.0 mi South 12.7 mph - N/A   Clear
10:15 AM 77.0 °F - 60.8 °F 57% 30.05 in 10.0 mi South 13.8 mph - N/A   Clear
10:35 AM 77.0 °F - 60.8 °F 57% 30.04 in 10.0 mi SSE 12.7 mph - N/A   Clear
10:55 AM 78.8 °F - 60.8 °F 54% 30.04 in 10.0 mi SSE 11.5 mph - N/A   Clear
11:15 AM 80.6 °F 81.5 °F 60.8 °F 51% 30.04 in 10.0 mi SSE 12.7 mph - N/A   Clear
11:35 AM 80.6 °F 81.1 °F 59.0 °F 48% 30.04 in 10.0 mi South 11.5 mph 17.3 mph N/A   Clear
11:55 AM 82.4 °F 82.5 °F 59.0 °F 45% 30.03 in 10.0 mi SE 9.2 mph 19.6 mph N/A   Scattered Clouds
12:15 PM 80.6 °F 81.1 °F 59.0 °F 48% 30.03 in 10.0 mi South 11.5 mph - N/A   Scattered Clouds
12:35 PM 80.6 °F 80.8 °F 57.2 °F 45% 30.03 in 10.0 mi South 9.2 mph 18.4 mph N/A   Mostly Cloudy
12:55 PM 80.6 °F 80.8 °F 57.2 °F 45% 30.03 in 10.0 mi SSW 10.4 mph 18.4 mph N/A   Mostly Cloudy
1:15 PM 80.6 °F 80.8 °F 57.2 °F 45% 30.02 in 10.0 mi South 10.4 mph 17.3 mph N/A   Mostly Cloudy
1:35 PM 82.4 °F 82.0 °F 57.2 °F 42% 30.02 in 10.0 mi South 12.7 mph 19.6 mph N/A   Mostly Cloudy
1:55 PM 82.4 °F 82.0 °F 57.2 °F 42% 30.02 in 10.0 mi SSE 12.7 mph 20.7 mph N/A   Mostly Cloudy
2:15 PM 84.2 °F 83.5 °F 57.2 °F 40% 30.01 in 10.0 mi SSW 9.2 mph 17.3 mph N/A   Mostly Cloudy
2:35 PM 82.4 °F 82.0 °F 57.2 °F 42% 30.01 in 10.0 mi South 13.8 mph 21.9 mph N/A   Mostly Cloudy
2:55 PM 84.2 °F 83.8 °F 59.0 °F 42% 30.01 in 10.0 mi South 12.7 mph 19.6 mph N/A   Scattered Clouds
3:15 PM 84.2 °F 83.8 °F 59.0 °F 42% 30.00 in 10.0 mi SSW 15.0 mph - N/A   Clear
3:35 PM 84.2 °F 83.5 °F 57.2 °F 40% 30.00 in 10.0 mi South 13.8 mph 19.6 mph N/A   Clear
3:55 PM 84.2 °F 83.5 °F 57.2 °F 40% 30.00 in 10.0 mi SSE 12.7 mph 21.9 mph N/A   Clear
4:15 PM 84.2 °F 83.5 °F 57.2 °F 40% 30.00 in 10.0 mi South 13.8 mph - N/A   Scattered Clouds
4:35 PM 84.2 °F 83.5 °F 57.2 °F 40% 29.99 in 10.0 mi South 12.7 mph 19.6 mph N/A   Mostly Cloudy
4:55 PM 84.2 °F 83.5 °F 57.2 °F 40% 29.98 in 10.0 mi South 15.0 mph 21.9 mph N/A   Scattered Clouds
5:15 PM 84.2 °F 83.0 °F 55.4 °F 37% 29.98 in 10.0 mi South 13.8 mph - N/A   Partly Cloudy
5:35 PM 84.2 °F 83.0 °F 55.4 °F 37% 29.98 in 10.0 mi South 13.8 mph - N/A   Partly Cloudy
5:55 PM 86.0 °F 84.9 °F 57.2 °F 37% 29.97 in 10.0 mi South 13.8 mph 21.9 mph N/A   Partly Cloudy
6:15 PM 84.2 °F 83.5 °F 57.2 °F 40% 29.97 in 10.0 mi South 15.0 mph - N/A   Clear
6:35 PM 84.2 °F 83.5 °F 57.2 °F 40% 29.97 in 10.0 mi South 13.8 mph 20.7 mph N/A   Partly Cloudy
6:55 PM 84.2 °F 83.5 °F 57.2 °F 40% 29.97 in 10.0 mi South 17.3 mph - N/A   Partly Cloudy
7:15 PM 82.4 °F 82.0 °F 57.2 °F 42% 29.97 in 10.0 mi South 17.3 mph 24.2 mph N/A   Scattered Clouds
7:35 PM 82.4 °F 82.0 °F 57.2 °F 42% 29.97 in 10.0 mi South 16.1 mph - N/A   Partly Cloudy
7:55 PM 80.6 °F 80.8 °F 57.2 °F 45% 29.97 in 10.0 mi South 15.0 mph 21.9 mph N/A   Clear
8:15 PM 80.6 °F 81.1 °F 59.0 °F 48% 29.97 in 10.0 mi South 13.8 mph - N/A   Clear
8:35 PM 78.8 °F - 59.0 °F 51% 29.98 in 10.0 mi South 13.8 mph - N/A   Clear
8:55 PM 77.0 °F - 60.8 °F 57% 29.98 in 10.0 mi South 11.5 mph - N/A   Clear
9:15 PM 77.0 °F - 60.8 °F 57% 29.98 in 10.0 mi South 12.7 mph - N/A   Clear
9:35 PM 75.2 °F - 60.8 °F 61% 29.99 in 10.0 mi South 12.7 mph - N/A   Clear
9:55 PM 75.2 °F - 60.8 °F 61% 30.00 in 10.0 mi South 12.7 mph - N/A   Clear
10:15 PM 75.2 °F - 60.8 °F 61% 30.00 in 10.0 mi South 12.7 mph - N/A   Clear
10:35 PM 75.2 °F - 60.8 °F 61% 30.01 in 10.0 mi South 13.8 mph - N/A   Clear
10:55 PM 73.4 °F - 60.8 °F 65% 30.01 in 10.0 mi South 13.8 mph 19.6 mph N/A   Clear
11:15 PM 73.4 °F - 60.8 °F 65% 30.01 in 10.0 mi SSE 12.7 mph - N/A   Clear
11:35 PM 73.4 °F - 60.8 °F 65% 30.02 in 10.0 mi SSE 12.7 mph - N/A   Clear
11:55 PM 73.4 °F - 60.8 °F 65% 30.02 in 10.0 mi SSE 10.4 mph - N/A   Clear